EHI
0 0 0 0 0 0 0 0 0 0 0 0 0 0 0 0 0 0 0 0 0 0 0 0 0 0 0 0 0 0 0 0 0 0 0 0 0 0 0 0 0 0 0 0
0 0 0 0 0 0 0 0 0 0 0 0 0 0 0 0 0 0 0 0 0 0 0 0 0 0 0 0 0 0 0 0 0 0 0 0 0 0 0 0 0 0 0 0
0 0 0 0 0 0 0 0 0 0 0 0 0 0 0 0 0 0 0 0 0 0 0 0 0 0 0 0 0 0 0 0 0 0 0 0 0 0 0 0 0 0 0 0
0 0 0 0 0 0 0 0 0 0 0 0 0 0 0 0 0 0 0 0 0 0 0 0 0 0 0 0 0 0 0 0 0 0 0 0 0 0 0 0 0 0 0 0
0 0 0 0 0 0 0 0 0 0 0 0 0 0 0 0 0 0 0 0 0 0 0 0 0 0 0 0 0 0 0 0 0 0 0 0 0 0 0 0 0 0 0 0
0 0 0 0 0 0 0 0 0 0 0 0 0 0 0 0 0 0 0 0 0 0 0 0 0 0 0 0 0 0 0 0 0 0 0 0 0 0 0 0 0 0 0 0
0 0 0 0 0 0 0 0 0 0 0 0 0 0 0 0 0 0 0 0 0 0 0 0 0 0 0 0 0 0 0 0 0 0 0 0 0 0 0 0 0 0 0 0
0 0 0 0 0 0 0 0 0 0 0 0 0 0 0 0 0 0 0 0 0 0 0 0 0 0 0 0 0 0 0 0 0 0 0 0 0 0 0 0 0 0 0 0
0 0 0 0 0 0 0 0 0 0 0 0 0 0 0 0 0 0 0 0 0 0 0 0 0 0 0 0 0 0 0 0 0 0 0 0 0 0 0 0 0 0 0 0
0 0 0 0 0 0 0 0 0 0 0 0 0 0 0 0 0 0 0 0 0 0 0 0 0 0 0 0 0 0 0 0 0 0 0 0 0 0 0 0 0 0 0 0
0 0 0 0 0 0 0 0 0 0 0 0 0 0 0 0 0 0 0 0 0 0 0 0 0 0 0 0 0 0 0 0 0 0 0 0 0 0 0 0 0 0 0 0
0 0 0 0 0 0 0 0 0 0 0 0 0 0 0 0 0 0 0 0 0 0 0 0 0 0 0 0 0 0 0 0 0 0 0 0 0 0 0 0 0 0 0 0
0 0 0 0 0 0 0 0 0 0 0 0 0 0 0 0 0 0 0 0 0 0 0 0 0 0 0 0 0 0 0 0 0 0 0 0 0 0 0 0 0 0 0 0
0 0 0 0 0 0 0 0 0 0 0 0 0 0 0 0 0 0 0 0 0 0 0 0 0 0 0 0 0 0 0 0 0 0 0 0 0 0 0 0 0 0 0 0
0 0 0 0 0 0 0 0 0 0 0 0 0 0 0 0 0 0 0 0 0 0 0 0 0 0 0 0 0 0 0 0 0 0 0 0 0 0 0 0 0 0 0 0
0 0 0 0 0 0 0 0 0 0 0 0 0 0 0 0 0 0 0 0 0 0 0 0 0 0 0 0 0 0 0 0 0 0 0 0 0 0 0 0 0 0 0 0
0 0 0 0 0 0 0 0 0 0 0 0 0 0 0 0 0 0 0 0 0 0 0 0 0 0 0 0 0 0 0 0 0 0 0 0 0 0 0 0 0 0 0 0
0 0 0 0 0 0 0 0 0 0 0 0 0 0 0 0 0 0 0 0 0 0 0 0 0 0 0 0 0 0 0 0 0 0 0 0 0 0 0 0 0 0 0 0
0 0 0 0 0 0 0 0 0 0 0 0 0 0 0 0 0 0 0 0 0 0 0 0 0 0 0 0 0 0 0 0 0 0 0 0 0 0 0 0 0 0 0 0
0 0 0 0 0 0 0 0 0 0 0 0 0 0 0 0 0 0 0 0 0 0 0 0 0 0 0 0 0 0 0 0 0 0 0 0 0 0 0 0 0 0 0 0
0 0 0 0 0 0 0 0 0 0 0 0 0 0 0 0 0 0 0 0 0 0 0 0 0 0 0 0 0 0 0 0 0 0 0 0 0 0 0 0 0 0 0 0
0 0 0 0 0 0 0 0 0 0 0 0 0 0 0 0 0 0 0 0 0 0 0 0 0 0 0 0 0 0 0 0 0 0 0 0 0 0 0 0 0 0 0 0
0 0 0 0 0 0 0 0 0 0 0 0 0 0 0 0 0 0 0 0 0 0 0 0 0 0 0 0 0 0 0 0 0 0 0 0 0 0 0 0 0 0 0 0
0 0 0 0 0 0 0 0 0 0 0 0 0 0 0 0 0 0 0 0 0 0 0 0 0 0 0 0 0 0 0 0 0 0 0 0 0 0 0 0 0 0 0 0
0 0 0 0 0 0 0 0 0 0 0 0 0 0 0 0 0 0 0 0 0 0 0 0 0 0 0 0 0 0 0 0 0 0 0 0 0 0 0 0 0 0 0 0
0 0 0 0 0 0 0 0 0 0 0 0 0 0 0 0 0 0 0 0 0 0 0 0 0 0 0 0 0 0 0 0 0 0 0 0 0 0 0 0 0 0 0 0
Wind_Speed
4 5 5 4 3 4 6 7 6 3 2 1 3 4 4 5 7 8 7 7 6 5 3 2 2 1 0 1 3 4 4 5 4 3 2 2 2 3 3 4 6 6 6 6
7 7 5 4 5 7 7 7 5 3 2 1 2 5 4 5 6 6 7 6 6 5 4 4 3 2 1 1 2 3 4 4 4 3 2 2 2 2 3 3 4 6 6 6
9 5 2 5 7 8 6 3 3 2 1 1 3 4 5 4 4 4 5 5 5 5 5 4 4 3 2 1 2 2 3 3 3 3 2 1 1 1 1 3 4 5 6 6
8 4 4 6 5 2 4 3 3 2 2 1 2 3 4 3 4 5 5 6 5 5 5 4 4 4 3 2 2 2 2 2 3 2 2 2 2 1 2 2 3 4 5 6
5 3 4 5 4 2 4 3 2 1 1 1 1 4 3 2 5 5 4 5 5 5 5 5 5 4 3 2 2 2 2 2 2 1 1 1 1 1 1 2 3 3 4 5
5 2 3 3 3 3 4 3 3 1 1 3 1 4 4 3 4 2 2 2 3 4 4 5 4 4 3 3 3 2 2 2 1 1 1 1 1 1 1 2 2 3 3 4
4 3 3 1 2 2 1 2 1 2 2 2 2 5 7 2 2 3 3 2 2 3 4 4 4 4 4 4 3 3 3 2 2 1 1 1 1 1 1 2 2 3 3 3
2 2 3 2 2 0 1 2 1 2 2 0 4 7 4 0 2 3 4 3 2 3 4 4 5 5 4 4 4 4 4 3 3 2 2 1 1 1 1 1 2 2 2 3
2 2 2 2 2 1 1 1 2 1 1 4 4 5 6 3 3 3 3 3 3 3 3 4 5 5 5 5 5 5 5 4 3 3 3 2 2 2 1 1 1 1 2 2
1 1 0 1 1 3 2 2 2 2 2 4 4 4 3 3 3 3 3 3 2 2 3 4 4 5 5 5 5 5 5 5 4 3 3 2 2 2 1 1 1 1 2 2
1 1 1 2 3 2 3 2 2 1 3 4 4 2 1 2 1 2 2 2 3 3 4 4 4 4 4 4 4 5 5 5 4 4 4 4 3 3 2 2 1 1 1 1
1 0 1 2 1 2 3 3 4 3 3 4 5 4 3 1 2 3 4 4 4 5 5 5 5 4 4 5 5 5 5 6 5 5 4 4 4 3 3 3 2 1 1 1
1 2 1 2 4 4 4 4 5 3 2 4 6 4 4 1 2 3 5 5 5 5 5 5 4 4 4 5 5 5 6 6 5 5 5 5 5 5 4 3 2 2 1 1
1 3 5 4 1 2 5 6 8 7 5 7 10 10 5 5 6 7 7 7 6 6 5 5 5 5 4 4 5 5 5 6 5 5 6 6 5 5 5 4 3 3 2 2
2 4 4 8 7 7 10 11 11 13 12 11 10 11 12 10 9 9 8 7 7 6 6 6 6 5 5 5 5 5 5 5 6 6 7 7 6 5 5 4 4 4 3 3
1 3 3 5 4 7 11 14 15 15 15 17 18 17 11 8 7 8 7 7 7 7 7 6 6 6 6 5 5 5 5 5 6 7 7 7 6 6 6 5 5 5 4 4
2 2 3 4 4 8 10 9 12 10 10 11 13 11 6 7 7 7 7 7 8 8 7 7 7 6 6 6 5 6 5 5 7 7 7 7 7 7 7 6 6 6 5 5
4 3 2 5 6 7 0 2 4 8 9 12 12 10 8 8 9 9 9 8 8 8 8 7 6 6 6 6 5 5 5 6 7 7 7 7 7 7 7 6 7 6 5 5
5 4 3 3 5 10 4 2 4 5 6 7 11 12 9 7 8 7 4 5 7 8 8 7 6 6 6 6 5 5 5 6 7 8 8 8 8 7 7 7 7 6 6 6
3 4 4 4 5 7 1 2 2 3 5 1 5 6 5 3 6 5 3 5 7 7 6 6 6 6 6 5 4 5 6 6 8 8 7 7 8 8 8 8 7 6 6 6
5 6 7 8 7 10 3 3 4 4 2 1 3 4 4 6 7 7 7 8 8 8 7 6 6 6 6 5 5 6 7 8 7 6 6 7 8 8 8 7 6 6 6 5
8 8 8 7 8 9 4 6 6 4 3 3 4 5 7 9 10 10 10 9 8 8 7 6 6 7 6 5 6 7 8 7 5 6 6 7 7 7 6 7 6 6 6 6
9 8 5 9 8 2 4 6 4 3 6 6 7 7 8 10 11 11 11 10 9 8 8 6 7 7 6 6 6 8 8 5 5 6 7 7 7 7 7 7 7 6 6 5
5 4 6 8 11 10 9 10 9 8 9 10 9 10 9 11 12 12 10 9 9 8 7 6 7 8 8 6 7 8 7 5 6 7 7 6 6 7 7 6 6 6 6 6
6 6 6 10 11 9 7 7 7 8 9 9 10 9 10 11 12 11 10 10 9 8 7 7 7 8 9 8 7 7 6 6 7 7 7 6 6 6 6 7 6 7 7 7
8 10 9 9 7 7 8 7 8 9 10 10 10 10 9 9 11 11 10 9 9 8 7 7 8 9 9 8 8 7 6 6 7 6 6 6 5 5 5 6 5 8 9 10
Wind_Direction
44 93 95 84 64 106 134 141 130 95 33 289 232 238 230 209 213 222 221 219 218 223 217 199 197 192 326 13 7 7 5 4 356 348 350 354 9 9 10 14 11 4 1 357
93 69 58 84 101 112 124 132 120 109 53 316 269 265 247 216 215 223 225 223 224 222 213 206 208 204 232 319 351 355 359 357 357 351 341 328 333 344 6 9 11 8 5 3
85 71 79 107 105 105 87 113 118 116 105 123 296 247 204 191 210 220 228 230 227 224 223 214 212 216 229 261 315 333 345 347 349 341 326 305 299 296 7 10 9 7 4 3
71 54 90 90 71 83 97 81 116 138 208 131 336 269 207 196 220 223 225 223 225 221 224 221 218 223 232 248 272 295 313 333 341 336 330 339 344 347 356 354 352 356 4 5
78 47 55 67 44 35 93 106 109 102 102 215 183 259 242 182 228 220 214 218 223 221 224 226 225 230 236 240 250 267 285 307 326 322 325 318 321 336 345 352 353 357 4 8
76 48 26 48 55 67 126 130 114 126 220 232 198 250 262 203 216 201 188 208 223 225 227 231 229 230 233 230 234 244 258 278 297 285 274 288 297 303 324 353 355 354 358 2
73 68 48 10 109 105 176 211 190 192 213 219 133 247 258 247 238 243 242 247 248 230 226 230 230 231 235 233 232 233 240 253 263 261 253 252 267 285 315 336 348 348 350 354
106 99 34 9 351 33 52 313 311 271 264 231 188 244 260 327 272 259 256 257 255 234 229 236 238 238 240 240 233 228 232 239 242 246 249 252 249 257 288 320 329 340 343 349
87 98 48 20 7 322 135 89 7 355 335 270 244 265 277 213 231 228 226 230 237 238 236 244 244 240 240 239 233 228 228 230 230 234 237 239 233 228 242 277 313 332 340 344
47 128 85 14 170 65 2 123 189 227 268 272 267 252 250 207 198 196 208 231 253 266 263 256 249 246 244 243 238 229 227 229 228 226 226 231 230 220 220 236 292 324 342 352
29 139 158 208 223 198 162 178 217 227 282 282 288 277 127 217 221 252 262 280 281 285 282 269 259 252 249 244 235 226 223 221 219 218 216 218 219 214 210 213 235 277 318 339
46 252 219 224 62 324 256 233 217 250 237 249 279 282 91 221 267 279 291 299 293 290 287 277 268 256 250 245 236 227 222 221 219 214 211 212 211 210 209 210 217 230 265 306
178 219 233 182 180 190 227 216 218 248 253 230 246 261 109 232 285 279 285 295 295 294 292 283 271 260 257 251 243 233 226 222 217 210 210 211 210 212 215 212 210 213 233 261
218 236 250 272 328 194 230 222 211 210 228 240 242 266 267 285 295 296 295 292 289 286 283 282 278 272 266 256 250 243 235 224 215 209 211 215 217 216 217 212 211 213 220 237
270 258 256 270 273 260 254 246 226 223 234 250 265 271 281 293 294 293 292 289 287 285 284 283 282 281 272 263 256 248 240 226 215 213 216 219 219 215 213 210 210 211 216 227
272 267 284 276 258 264 263 252 239 237 241 249 266 276 285 294 288 285 283 282 281 282 286 286 282 279 274 266 259 252 243 227 216 218 220 216 212 209 210 211 211 211 216 222
215 237 280 278 310 291 263 243 219 219 224 232 247 259 287 290 289 290 288 282 280 284 285 282 279 275 275 271 261 254 247 228 218 220 220 214 210 211 212 210 212 215 216 219
209 205 255 295 307 257 27 78 212 226 245 234 250 267 278 288 298 289 278 272 280 286 286 284 279 277 276 272 261 255 244 226 221 222 221 216 212 214 213 213 217 220 221 223
222 218 241 265 284 280 285 196 192 222 265 234 240 262 277 298 297 278 264 266 278 286 286 283 276 274 273 268 260 249 237 225 223 225 223 217 212 214 213 215 219 219 218 223
180 224 239 234 262 265 357 122 180 231 260 197 227 259 275 286 290 315 343 305 294 290 284 280 278 273 267 261 249 239 237 229 230 228 225 218 213 215 216 217 217 215 217 224
174 198 220 230 248 269 273 149 169 244 350 19 254 264 252 250 279 310 309 299 294 291 286 280 273 266 263 258 241 240 241 239 239 234 225 217 214 216 218 216 211 209 213 219
195 192 202 202 222 253 158 158 212 286 338 300 285 278 272 275 287 292 292 291 293 292 287 279 271 268 266 252 240 245 247 247 239 227 222 219 215 211 210 210 208 208 210 218
218 216 211 211 230 308 178 221 266 296 286 290 288 286 284 285 285 289 289 289 289 286 283 278 270 272 267 251 240 249 255 250 232 224 224 221 216 212 209 208 206 206 210 219
227 215 235 253 261 265 264 266 268 267 272 283 284 283 282 280 284 286 286 285 286 284 280 277 272 270 269 260 249 250 255 241 227 228 226 219 214 212 210 209 209 209 210 216
236 191 226 254 273 286 270 256 273 285 284 283 283 280 279 280 280 282 284 284 284 282 278 271 266 268 271 270 262 256 248 233 229 231 226 220 217 214 213 214 215 217 221 222
213 208 222 254 266 269 286 299 302 294 292 293 292 291 286 279 279 284 283 284 284 281 278 274 269 268 271 270 265 258 242 228 228 230 226 220 215 214 214 215 223 226 231 231